www.pogodaiklimat.ru

Погода и климат >> Архив погоды >> Мексика >> Оризаба


ПОГОДА в Оризабе

  • Прогноз погоды в Оризабе
  • Монитор погоды в Оризабе

АРХИВ ПОГОДЫ в Оризабе

Время (UTC), дата Ветер
(напр.,м/с)
 
Видим.   Явления Облачность Т
(С)
Тd
(С)
f
(%)
Тe
(С)
Тes
(С)
Комфортность P
(гПа)
Po
(гПа)
Тmin
(С)
Tmax
(С)
R
(мм)
R24
(мм)
S
(см)
18 11.08 В 2
{5}
30 км 4/0
[Cs]
+26.4 +19.4 65 +32 +52 опасность
солнечного
удара
1016.0 879.2 +17.0 +27.7
21 11.08 ЮВ 3
{6}
30 км 5/5 700 м
[Cu med, cong]
+27.4 +19.0 60 +33 +39 очень
душно
1012.8 877.5
00 12.08 ЮВ 3
{6}
25 км гроза, ливневой дождь 10/10 500 м
[Cb cap]
+22.1 +19.9 87 +28 +28 душно 1012.4 877.9 +17.0 +28.0 0.0
03 12.08 штиль 0 25 км {дождь} 8/5 500 м
[St Ac trans]
+20.4 +19.4 94 +24 +24 комфорт 1014.0 879.5
06 12.08 штиль 0 30 км {дождь} ясно +18.7 +17.7 94 +20 +20 1015.1 879.9 +17.0 +28.0 2
09 12.08 штиль 0 30 км 8/0
[Cs]
+16.9 +16.0 94 +17 +17 1014.8 878.6
12 12.08 штиль 0 30 км 8/0 2000 м
[Ac und]
+16.7 +14.7 88 +17 +17 1015.8 878.6 +16.7 +28.0
15 12.08 В 1
{2}
30 км 10/0
[Cs]
+24.2 +16.1 61 +28 +36 душно 1015.9 878.9
18 12.08 В 2
{4}
30 км 10/1 700 м
[Cu hum Cs]
+27.2 +18.0 57 +32 +47 очень
душно
1015.2 878.7 +16.7 +28.0
21 12.08 ЮВ 3
{6}
30 км 4/4 700 м
[Cb calv]
+27.3 +21.2 69 +34 +42 очень
душно
1011.5 876.9
00 13.08 СВ 2
{5}
20 км гроза, ливневой дождь 9/6 600 м
[Cb cap As op]
+18.6 +17.6 94 +20 +20 1012.3 878.0 +16.7 +28.0 8
03 13.08 С 2
{3}
20 км {морось} 9/4 400 м
[St Ac und]
+18.7 +18.3 98 +20 +20 1013.8 879.1 0.7
06 13.08 С 1
{3}
30 км {морось} 1/0 2000 м
[Ac trans]
+18.4 +18.3 99 +20 +20 1015.4 879.6 +16.7 +28.0 0.7
09 13.08 З 1 30 км ясно +18.3 +17.1 93 +20 +20 1014.3 877.7
12 13.08 СЗ 1
{2}
30 км 1/0
[Ci fib]
+16.4 +15.2 93 +17 +17 1014.2 877.1 +16.4 +28.0
15 13.08 СЗ 1
{2}
30 км 3/0
[Cs]
+23.0 +14.9 60 +27 +37 душно 1014.5 877.5
18 13.08 В 1
{2}
30 км 3/1 700 м
[Cu hum Cs]
+27.8 +18.2 56 +33 +54 опасность
солнечного
удара
1013.9 877.6 +16.4 +27.9
21 13.08 ЮВ 3
{6}
30 км 1/1 700 м
[Cu hum]
+28.4 +19.2 57 +34 +45 очень
душно
1010.9 876.5
00 14.08 В 2
{5}
30 км 6/6 600 м
[Cb calv]
+24.9 +19.6 72 +30 +30 душно 1010.1 876.7 +16.4 +29.3
03 14.08 СВ 1
{4}
30 км {гроза} 4/0 2000 м
[Ac trans]
+19.3 +16.5 84 +22 +22 комфорт 1013.1 879.2 0.2
06 14.08 З 1
{1}
30 км {гроза} ясно +18.4 +15.4 83 +20 +20 1015.2 880.2 +16.4 +29.3 0.2
09 14.08 З 1
{3}
30 км 6/0
[Ci]
+18.3 +15.1 82 +20 +20 1014.2 878.2
12 14.08 З 1
{3}
30 км 6/0
[Ci]
+15.8 +14.1 90 +16 +16 1015.3 878.1 +15.8 +29.3
15 14.08 В 1
{2}
30 км 4/0
[Cs]
+23.0 +14.4 58 +27 +36 душно 1016.0 878.6
18 14.08 В 2
{4}
30 км 4/0
[Cs]
+27.8 +18.8 58 +33 +53 опасность
солнечного
удара
1015.2 878.5 +15.8 +28.3
21 14.08 Ю 3
{6}
30 км 1/1 600 м
[Cu hum]
+29.0 +19.4 56 +35 +45 очень
душно
1011.3 876.6
00 15.08 В 2
{6}
28 км гроза без осадков 6/6 700 м
[Cb calv]
+26.2 +18.9 64 +31 +32 очень
душно
1009.9 876.4 +15.8 +29.4
03 15.08 СВ 1
{5}
30 км {гроза} 9/0 2000 м
[Ac As]
+20.1 +18.7 92 +25 +25 комфорт 1012.9 879.3 1
06 15.08 штиль 0
{5}
30 км {гроза} 8/0 2000 м
[Ac und]
+19.6 +18.3 92 +22 +22 комфорт 1015.6 880.8 +15.8 +29.4 1
09 15.08 СЗ 1 25 км 4/0
[Ci fib]
+18.5 +17.6 94 +20 +20 1015.4 879.6
12 15.08 СЗ 1
{2}
25 км 3/0
[Ci fib]
+17.1 +15.3 89 +18 +18 1015.8 879.0 +17.1 +29.4
15 15.08 СЗ 1
{2}
30 км 3/0
[Cs]
+24.6 +14.9 55 +27 +37 жарко 1015.9 879.1
18 15.08 В 2
{4}
30 км 6/1 700 м
[Cu hum Cs]
+26.9 +18.6 60 +32 +49 очень
душно
1015.1 878.9 +17.0 +27.3
21 15.08 В 3
{6}
28 км 5/5 700 м
[Cu med, cong]
+26.6 +19.6 65 +32 +38 очень
душно
1012.3 877.5
00 16.08 В 2
{6}
15 км 8/5 500 м
[St Cs]
+23.0 +18.7 77 +29 +29 очень
душно
1011.5 877.6 +17.0 +27.6
03 16.08 С 1
{4}
20 км гроза, ливневой дождь 10/10 400 м
[Cb cap]
+18.1 +17.2 94 +19 +19 1015.0 880.6 29
06 16.08 штиль 0
{4}
30 км {гроза, дождь} 9/0 2000 м
[Ac und]
+18.5 +18.2 98 +19 +19 1016.2 880.7 +17.0 +27.6 3
09 16.08 З 1 25 км 3/0
[Ac trans]
+17.4 +16.8 96 +18 +18 1015.1 878.8
12 16.08 З 1
{3}
30 км 3/0
[Ci fib]
+17.9 +14.7 82 +19 +19 1014.5 877.6 +17.4 +27.6
15 16.08 штиль 0
{3}
30 км 10/0
[Cs]
+24.0 +15.1 57 +27 +37 жарко 1015.9 878.9
18 16.08 В 2
{4}
30 км 4/0
[Cs]
+27.2 +18.3 58 +32 +52 опасность
солнечного
удара
1014.9 878.9 +17.4 +27.5
21 16.08 В 3
{7}
30 км 6/1 700 м
[Cu med, cong Cs]
+28.2 +19.6 60 +34 +44 очень
душно
1012.0 877.5
00 17.08 Ю 3
{7}
20 км гроза без осадков 8/8 700 м
[Cb calv]
+25.8 +19.2 67 +31 +31 очень
душно
1010.3 876.9 +17.4 +28.7
03 17.08 штиль 0 25 км {морось} 5/5 400 м
[St]
+20.3 +18.7 91 +24 +24 комфорт 1012.2 878.5 0.3
06 17.08 штиль 0 30 км {морось} ясно +18.9 +17.4 91 +20 +20 1013.5 878.9 +17.4 +28.7 0.3
12 17.08 штиль 0 30 км ясно +16.7 +14.1 85 +17 +17 1014.1 877.4 +16.7 +28.7
15 17.08 В 1
{2}
30 км 4/0
[Ci]
+23.2 +16.2 65 +28 +38 душно 1014.7 877.8
18 17.08 Ю 2
{4}
30 км 4/0
[Ci fib]
+27.1 +19.0 61 +32 +52 опасность
солнечного
удара
1012.9 877.0 +16.2 +27.5
21 17.08 Ю 3
{7}
30 км 4/1 700 м
[Cu hum Ci fib]
+28.9 +19.9 58 +35 +45 очень
душно
1010.1 875.6
00 18.08 ЮВ 3
{6}
30 км 3/3 700 м
[Cu hum]
+26.2 +18.6 63 +31 +31 очень
душно
1008.0 874.8 +16.2 +29.1
03 18.08 Ю 3
{6}
20 км 10/10 400 м
[St]
+22.2 +20.1 88 +28 +28 душно 1009.8 876.8
06 18.08 штиль 0 20 км {морось} 10/10 400 м
[Frnb As trans Ci ing]
+21.0 +19.2 89 +25 +25 комфорт 1011.7 877.9 +16.2 +29.1 0.0
09 18.08 штиль 0 30 км ясно +19.6 +18.0 90 +22 +22 комфорт 1010.5 876.0
12 18.08 штиль 0 30 км 1/0 2000 м
[Ac trans]
+17.9 +15.6 86 +18 +18 1011.5 876.0 +17.9 +29.1

 

Местоположение метеостанции Оризаба (Мексика): широта 18.85 долгота -97.10 высота над уровнем моря 1259 м.

В архиве по умолчанию представлена погода в Оризабе за последнюю неделю. Архивные данные за месяц целиком и за предыдущие месяцы, начиная с января 2011 года, Вы можете получить, выбрав интересующий диапазон дат из раскрывающегося списка и нажав кнопку "Ввод!".


*Определитесь, кто Вы:
робот инопланетянин человек

Внимание! Время в таблицах - всемирное. Для получения местного времени необходимо прибавить поправку, которая равна -6 ч.

Смотрите также архив погоды в соседних городах и на ближайших метеорологических станциях:

Погода в Кордове (Мексика) (19 км)
Погода в Халапе (Мексика) (80 км)
Погода в Веракрусе (Мексика) (109 км)
Погода в Пуэбле (Мексика) (114 км)
Погода в Тлашкала аэропорту (Мексика) (130 км)
Погода в Тлашкале (Мексика) (132 км)
Погода в Уахуапан-де-Леоне (Мексика) (137 км)
Погода в Тулансинго (Мексика) (191 км)
Погода в Оахаке (Мексика) (204 км)
Погода в Сакатепеке (Мексика) (219 км)

Пояснения к столбцам:

Ветер - указаны скорость ветра в м/с - средняя за 10 мин, порывы в срок и между сроками (в фигурных скобках) и направление, откуда дует ветер: С - северный, СВ - северо-восточный, В - восточный, ЮВ - юго-восточный, Ю - южный, ЮЗ - юго-западный, З - западный, СЗ - северо-западный.
Видимость - горизонтальная дальность видимости в метрах или километрах. При видимости от 1 до 10 км при отсутствии осадков обычно наблюдается дымка, при ухудшении видимости до 1 км и менее - туман. В сухую погоду видимость может ухудшаться дымом, пылью или мглою.
Явления - указаны атмосферные явления, наблюдавшиеся в срок или в последний час перед сроком; фигурными скобками обозначены явления, наблюдавшиеся между сроками (за 1-3 часа до срока); квадратными скобками обозначены град или гололедные отложения с указанием их диаметра в мм.
Облачность - указаны через наклонную черту общая и нижняя облачность в баллах и высота нижней границы облаков в метрах; квадратными скобками обозначены формы облаков: Ci - перистые, Cs - перисто-слоистые, Cc - перисто-кучевые, Ac - высококучевые, As - высокослоистые, Sc - слоисто-кучевые, Ns - слоисто-дождевые, Cu - кучевые, Cb - кучево-дождевые. Подробнее классификацию облаков см. в Атласе облаков (PDF).
T - Температура воздуха - температура, измеренная на высоте 2 м над землей.
Td - Температура точки росы - температура, при понижении до которой содержащийся в воздухе водяной пар достигнет насыщения.
f - Относительная влажность воздуха - влажноcть воздуха, измеренная на высоте 2 м над землей.
Te - Эффективная температура - температура, которую ощущает одетый по сезону человек в тени. Характеристика душности погоды. При расчете учитывается влияние влажности воздуха и скорости ветра на теплоощущения человека.
Tes - Эффективная температура на солнце - температура, которую ощущает человек, с поправкой на солнечный нагрев. Характеристика знойности погоды. Зависит от высоты солнца над горизонтом, облачности и скорости ветра. Ночью, в пасмурную погоду, а также при ветре 12 м/с и более поправка равна нулю.
P - Атмосферное давление - приведенное к уровню моря атмосферное давление.
Po - Атмосферное давление - измеренное на уровне метеостанции атмосферное давление.
Tmin - Минимальная температура - минимум температуры воздуха на высоте 2 м над землей.
Tmax - Максимальная температура - максимум температуры воздуха на высоте 2 м над землей.
R - Количество осадков - Количество выпавших осадков за период времени, мм. При наведении курсора мыши на число - период времени, за который выпало указанное количество осадков.
R24 - Количество осадков - Количество выпавших осадков за 24 часа, мм.
S - Снежный покров - Высота снежного покрова, см. При наведении курсора мыши на число - состояние снежного покрова и степень покрытия местности в баллах.